Location: Brod?a
(50.0432°N, 19.5842°E)
Time: 23:56:18
(UTC+00:00)

Daily predictions for brighter satellites

Satellite Brightness Start Highest point End
(mag) Time Altitude Azimuth Time Altitude Azimuth Time Altitude Azimuth
Cosmos 1745 Rocket 4.0 16:39:42 10° S 16:45:49 89° ESE 16:52:01 10° N
Aureole 1 Rocket 4.2 16:38:20 10° NNW 16:46:11 81° ENE 16:52:19 10° SSE
COSMOS 2455 3.0 16:40:35 10° NNW 16:46:31 55° NE 16:52:25 10° SE
H-2A R/B 2.4 16:41:56 10° SE 16:47:10 52° ENE 16:52:28 10° N
ARGOS 3.7 16:42:14 10° SE 16:47:13 39° ENE 16:52:14 10° N
Cosmos 2228 Rocket 3.3 16:45:26 10° N 16:49:54 52° ENE 16:54:17 10° SSE
Cosmos 2297 Rocket 3.5 16:44:34 10° NW 16:49:56 45° WSW 16:55:16 10° S
Cosmos 1862 3.3 16:49:06 10° S 16:53:05 65° E 16:57:06 10° NNE
Cosmos 1271 Rocket 4.0 16:51:55 10° NNE 16:54:46 20° ENE 16:57:37 10° ESE
Meteor 2-6 Rocket 4.4 16:49:20 10° NNW 16:55:08 83° W 17:00:44 10° S
CZ-2C R/B 3.7 16:51:25 10° NE 16:55:56 25° E 17:00:22 10° SE
NOSS 2-1 (C) 4.2 16:52:43 10° NW 16:57:21 64° NE 17:03:48 10° SE
FALCON 9 DEB 4.5 16:56:31 10° SSW 16:59:01 21° SE 17:01:18 11° E
Cosmos 1709 Rocket 4.0 16:53:08 10° S 16:59:13 69° E 17:05:25 10° NNE
Cosmos 2181 Rocket 4.1 16:53:36 10° N 17:00:01 61° ENE 17:06:22 10° SSE
CZ-2D R/B 3.6 16:57:04 10° S 17:00:49 68° WSW 17:04:38 10° NNW
Cosmos 1812 2.9 16:57:15 10° NNW 17:01:06 76° W 17:04:56 10° S
Cosmos 1844 Rocket 4.4 16:58:28 10° N 17:01:53 16° NNE 17:05:17 10° ENE
HJ-1C 4.0 16:59:36 10° SE 17:02:39 34° ENE 17:05:43 10° N
Gbstr 26 Del rocket 4.5 16:59:39 10° S 17:03:12 24° SE 17:06:56 11° E
CZ-2C R/B 3.6 16:57:38 10° S 17:03:26 74° WSW 17:09:07 10° NNW
NOSS 2-1 (D) 4.1 16:58:48 10° NW 17:03:28 70° NE 17:10:03 10° SE
FALCON 9 DEB 3.3 17:00:40 10° W 17:04:05 65° NNW 17:07:15 12° ENE
Cosmos 2084 4.1 17:01:39 10° S 17:05:30 36° ESE 17:09:27 10° ENE
TSX-5 4.1 17:01:02 10° NNW 17:05:49 53° NE 17:09:33 10° SE
Cosmos 1689 Rocket 2.9 17:03:35 10° NE 17:06:06 27° E 17:08:36 10° SSE
CSL-04 Rocket 4.0 17:02:25 10° SE 17:07:42 48° ENE 17:13:00 10° N
Cosmos 1408 Rocket 4.4 17:06:26 10° SSW 17:10:48 55° WNW 17:15:13 10° N
Cosmos 292 Rocket 3.8 17:06:28 10° S 17:11:06 56° ESE 17:15:46 10° NNE
Cosmos 1242 Rocket 3.4 17:10:21 10° NNW 17:13:48 53° W 17:17:17 10° S
COSMO-SKYMED 1 3.0 17:14:15 10° N 17:18:35 68° WNW 17:22:53 10° SSW
YAOGAN 1 2.5 17:16:16 10° SSE 17:20:36 89° E 17:24:57 10° NNW
Cosmos 1656 4.4 17:15:46 10° SW 17:21:10 54° NW 17:26:33 10° NNE
Okean-O 2.6 17:17:07 10° SSE 17:21:32 88° E 17:26:00 10° NNW
Helios 1A Rocket 2.9 17:18:01 10° SSE 17:22:02 60° ENE 17:26:03 10° N
Cosmos 1500 Rocket 3.7 17:18:32 10° SSW 17:22:53 76° W 17:27:14 10° N
FALCON 9 DEB 4.0 17:20:30 10° SSW 17:23:19 29° SE 17:24:44 20° E
Cosmos 1980 Rocket 2.3 17:18:56 10° S 17:24:26 55° ESE 17:29:59 10° NE
Cosmos 220 Rocket 4.2 17:20:44 10° S 17:24:45 47° ESE 17:28:51 10° NE
SL-4 R/B 1.7 17:22:06 10° SW 17:25:38 58° SSE 17:27:44 21° E
APEX 3.8 17:23:16 10° N 17:25:55 24° NE 17:26:40 21° ENE
Meteor 2-17 Rocket 4.4 17:21:20 10° S 17:27:28 83° E 17:33:35 10° NNE
Lacrosse 5 rocket 2.6 17:25:59 10° WNW 17:30:12 42° SW 17:34:12 10° SSE
FALCON 9 DEB 3.6 17:28:48 10° SW 17:31:46 38° SSE 17:33:00 26° E
Sich 1 3.1 17:27:58 10° S 17:32:14 57° E 17:36:35 10° NNE
Cosmos 2227 4.3 17:26:33 10° NNW 17:32:18 62° ENE 17:38:00 10° SE
Cosmos 44 4.3 17:28:58 10° NW 17:34:17 54° WSW 17:39:32 10° SSE
Cosmos 2322 Rocket 3.7 17:30:56 10° SE 17:33:02 16° ESE 17:33:02 16° ESE
Cosmos 1452 Rocket 3.9 17:29:21 10° SW 17:34:33 66° WNW 17:39:49 10° NNE
Cosmos 968 Rocket 4.0 17:30:41 10° NNW 17:35:38 39° ENE 17:39:07 18° ESE
CZ-4B R/B 3.0 17:33:41 10° N 17:36:28 34° WNW 17:39:15 10° SW
Cosmos 724 4.3 17:35:18 10° SSW 17:41:19 71° SE 17:47:30 10° NE
Cosmos 1707 Rocket 3.5 17:36:57 10° N 17:41:23 70° ENE 17:45:45 10° SSE
Cosmos 1867 3.7 17:37:00 10° SSW 17:42:18 56° ESE 17:47:24 11° NE
Cosmos 1437 2.3 17:43:25 10° NNW 17:46:21 88° E 17:49:13 10° SSE
Meteor 1-20 Rocket 4.3 17:41:51 10° SSE 17:47:06 50° E 17:52:23 10° NNE
USA 234 3.3 17:42:03 14° ENE 17:47:48 67° SE 17:54:19 10° SW
Cosmos 1633 Rocket 3.3 17:44:05 10° SSE 17:48:16 44° E 17:52:29 10° NNE
ERS-2 2.2 17:44:53 10° NNE 17:48:34 81° WNW 17:52:13 10° SSW
Cosmos 1697 Rocket 3.2 17:43:12 10° SW 17:48:48 61° WNW 17:54:25 10° NNE
Cosmos 2360 4.5 17:44:02 10° SW 17:49:44 72° WNW 17:55:29 10° NNE
Cosmos 1110 Rocket 4.0 17:46:21 10° SSW 17:51:41 87° ESE 17:57:03 10° NNE
SL-16 R/B 2.9 17:48:39 10° SSE 17:53:26 29° ESE 17:55:08 25° ENE
Meteor 1-19 Rocket 4.4 17:48:13 10° N 17:54:09 55° ENE 17:59:56 10° SSE
SAR-Lupe-4 3.8 17:54:11 10° N 17:57:46 68° WNW 18:01:19 10° SSW
Cosmos 2369 4.2 17:55:03 10° SW 18:00:38 62° WNW 18:06:19 10° NNE
USA 305 2.9 17:57:33 10° SW 18:01:47 62° SSE 18:03:07 40° E
Nadezhda 3 Rocket 4.0 17:56:12 10° N 18:02:31 65° ENE 18:08:50 10° SSE
SeaSat 1 2.8 17:59:05 10° NNE 18:04:00 67° NW 18:08:54 10° SW
DMSP B5D2-2 4.1 17:59:18 10° NNE 18:04:28 56° E 18:09:35 10° S
Cosmos 2154 Rocket 4.0 17:58:38 10° SSE 18:04:42 56° E 18:10:45 10° NNE
Ariane Rocket 3.2 18:03:13 27° SE 18:05:44 50° ENE 18:10:41 10° N
Resurs 01 Rocket 3.0 18:07:05 22° NE 18:07:05 22° NE 18:09:39 10° N
CZ-4 R/B 3.7 18:03:49 10° SSW 18:07:01 25° W 18:10:15 10° NW
IRS-1A Rocket 4.3 18:04:36 20° SE 18:08:28 57° ENE 18:13:57 10° N
Cosmos 2263 Rocket 2.3 18:03:16 10° NNW 18:08:50 75° WSW 18:14:10 11° SSE
USA 307 2.8 18:05:20 10° SW 18:09:34 66° SSE 18:10:34 48° E
Okean 1-7 4.3 18:07:20 10° N 18:10:01 25° NE 18:10:01 25° NE
Cosmos 2242 Rocket 4.3 18:09:04 10° N 18:12:45 35° NE 18:12:45 35° NE
Cosmos 2074 Rocket 4.0 18:07:26 10° S 18:13:44 87° W 18:20:03 10° N
FALCON 9 DEB 3.2 18:12:39 10° WSW 18:15:24 59° SSW 18:15:24 59° SSW
Cosmos 1610 Rocket 4.4 18:09:44 10° S 18:15:50 67° E 18:22:02 10° NNE
USA 306 2.8 18:11:41 10° SW 18:15:57 73° SSE 18:16:44 56° E
Meteor 1-14 Rocket 4.4 18:12:04 10° SSE 18:17:22 45° E 18:22:38 10° NNE
USA 308 2.8 18:15:34 10° SW 18:19:50 75° SSE 18:20:26 62° E
Cosmos 1470 Rocket 3.6 18:15:54 10° S 18:20:15 54° E 18:24:38 10° NNE
Cosmos 1515 3.6 18:17:32 10° N 18:21:24 90° SE 18:22:18 51° S
Cosmos 2184 Rocket 4.1 18:20:14 10° SSW 18:26:23 74° W 18:32:36 10° N
H-2A R/B 4.2 18:22:14 10° SSW 18:26:51 28° W 18:31:31 10° NW
Meteor 2-4 Rocket 3.8 18:22:17 10° N 18:27:58 60° ENE 18:29:44 42° SE
Cosmos 1703 Rocket 4.4 18:24:57 10° N 18:28:01 35° NNE 18:28:01 35° NNE
SJ-6B 2.9 18:28:38 45° S 18:29:50 83° WSW 18:33:59 10° NNW
OBJECT-B 2.3 18:32:13 31° NNW 18:32:13 31° NNW 18:34:02 10° NNW
Cosmos 1271 Rocket 4.2 18:27:26 10° NNW 18:30:53 36° W 18:34:19 10° SSW
Cosmos 1295 Rocket 4.4 18:25:06 10° S 18:31:21 73° E 18:37:34 10° NNE
COSMOS 2455 4.3 18:26:51 10° NW 18:32:15 35° WSW 18:37:37 10° S
Meteor 1-18 Rocket 4.3 18:26:56 10° NNW 18:32:54 85° WSW 18:38:04 14° S
Cosmos 2278 4.3 18:27:29 10° SW 18:33:04 56° NW 18:38:41 10° NNE
FALCON 9 DEB 4.2 18:31:22 10° WSW 18:33:30 39° WSW 18:33:30 39° WSW
Meteor 1-25 Rocket 4.4 18:29:18 10° SSW 18:35:05 75° WNW 18:40:51 10° N
GP-B 3.0 18:33:07 33° S 18:35:06 89° W 18:39:35 10° N
Cosmos 1844 4.2 18:30:15 10° NNW 18:35:46 42° NE 18:36:05 42° ENE
CZ-2C R/B 3.2 18:31:09 10° N 18:36:38 59° WNW 18:41:59 10° SSW
Okean 1 3.7 18:33:40 10° NNW 18:37:38 62° W 18:38:49 41° SSW
MetOp-A 4.5 18:32:40 10° S 18:37:58 66° WSW 18:43:20 10° NNW
Cosmos 1461 3.8 18:34:05 10° SSW 18:37:22 41° S 18:37:22 41° S
Cosmos 1602 4.0 18:35:23 10° SSW 18:39:13 65° WNW 18:43:07 10° N
Cosmos 44 Rocket 3.3 18:35:27 10° NW 18:40:43 75° NE 18:41:15 68° E
FALCON 9 DEB 4.4 18:37:57 10° WNW 18:40:28 39° NW 18:40:28 39° NW
Cosmos 1862 Rocket 4.3 18:38:11 10° NNW 18:42:35 54° W 18:45:36 19° SSW
ATLAS 5 CENTAUR R/B 3.6 18:34:34 10° WSW 18:44:42 42° NW 18:46:36 26° NNE
Cosmos 2278 Rocket 3.9 18:40:55 10° N 18:44:39 18° NNE 18:44:39 18° NNE
Cosmos 1844 Rocket 2.7 18:41:33 10° NNW 18:47:04 56° NE 18:47:04 56° NE
BREEZE-M DEB (TANK) 3.0 18:44:33 10° W 18:46:16 46° W 18:46:16 46° W
Meteor 2-12 Rocket 4.3 18:41:04 10° S 18:47:08 89° E 18:53:15 10° N
Cosmos 1486 Rocket 4.2 18:43:30 10° NNW 18:48:45 69° WSW 18:50:25 43° S
Cosmos 2341 Rocket 3.9 18:46:42 35° SSE 18:49:23 65° E 18:55:37 10° NNE
Gbstr 26 Del rocket 3.3 18:44:44 10° WSW 18:49:26 77° SSE 18:49:30 77° SE
Resurs 1-3 3.8 18:50:32 66° N 18:50:32 66° N 18:54:21 10° NNW
Cosmos 962 Rocket 4.3 18:45:08 10° S 18:51:16 74° E 18:57:31 10° NNE
SL-8 Rocket 4.4 18:52:57 45° NE 18:52:57 45° NE 18:57:36 10° NNE
SPOT 3 Rocket 3.6 18:53:33 62° NE 18:53:33 62° NE 18:58:14 10° N
Cosmos 1339 Rocket 4.3 18:56:21 10° N 19:02:32 78° E 19:03:02 73° SE
SL-4 R/B 3.8 19:01:43 10° W 19:03:19 25° W 19:03:19 25° W
Cosmos 1980 Rocket 3.8 19:03:38 10° WSW 19:08:44 33° NW 19:13:53 10° NNE
Cosmos 1354 Rocket 4.1 19:04:21 10° NNW 19:09:06 72° NNW 19:09:06 72° NNW
Cosmos 2322 Rocket 3.2 19:12:01 10° SSW 19:15:03 34° SSW 19:15:03 34° SSW
MOS 1-B Rocket 4.4 19:14:35 10° NNE 19:21:47 70° ESE 19:22:33 66° SE
Cosmos 1503 Rocket 4.5 19:19:06 10° NNW 19:23:43 56° W 19:23:43 56° W
USA 234 3.6 19:29:23 50° NNE 19:30:48 61° NNW 19:37:14 10° W
Terra 4.4 19:37:35 12° N 19:37:35 12° N 19:38:04 10° N
SJ 16-02 4.0 19:31:22 10° N 19:31:50 12° N 19:31:50 12° N
SL-16 R/B 2.7 19:31:40 10° SW 19:37:13 56° NW 19:37:13 56° NW
Resurs 01 Rocket 3.7 19:44:38 25° NW 19:44:38 25° NW 19:46:39 10° NNW
USA 281 4.2 20:22:43 39° N 20:22:43 39° N 20:26:42 10° NNW
Cosmos 2278 Rocket 4.2 20:24:21 10° NNW 20:26:30 24° NNW 20:26:30 24° NNW
